Location: Platte
(43.3870°N, 98.8440°W)
Time: 06:40:26
(UTC-05:00)

Shenzhou-11 Module - Pass Details

Date: 21 May 2018
Orbit: 351 x 353 km, 42.8° (Epoch: 17 June)

Event Time Altitude Azimuth Distance (km) Brightness Sun altitude
Rises 22:53:52 0° 268° (W) 2,161 6.4 -16.6°
Reaches altitude 10° 22:55:54 10° 268° (W) 1,317 5.2 -16.9°
Maximum altitude 22:58:51 82° 183° (S) 359 1.7 -17.2°
Enters shadow 22:59:11 67° 111° (ESE) 384 1.8 -17.2°
